Weather History for KHAE - April, 2014

Change the Weather History Date:

Saturday, April 26, 2014

  Actual Average Record
Temperature  
Mean Temperature 66 °F -  
Max Temperature 80 °F 70 °F 80 °F (2014)
Min Temperature 53 °F 48 °F 42 °F (2015)
Cooling Degree Days 2    
Growing Degree Days 16 (Base 50)    
Moisture  
Dew Point 36 °F    
Average Humidity 34    
Maximum Humidity 54    
Minimum Humidity 17    
Precipitation  
Precipitation 0.01 in - - ()
Sea Level Pressure  
Sea Level Pressure 29.83 in    
Wind  
Wind Speed 7 mph (South)    
Max Wind Speed 15 mph    
Max Gust Speed 23 mph    
Visibility 10 miles    
Events Rain , Thunderstorm    
Averages and records for this station are not official NWS values.
T = Trace of Precipitation, MM = Missing Value Source: NWS Daily Summary

Daily Weather History Graph

Daily Weather History Graph

Search for Another Location

Airport or City:

Trip Planner

Search our weather history database for the weather conditions in past years. The results will help you decide how hot, cold, wet, or windy it might be!

Date:

Astronomy

Apr. 26, 2014 Rise Set
Actual Time 6:12 AM CDT 7:54 PM CDT
Civil Twilight 5:44 AM CDT 8:23 PM CDT
Nautical Twilight 5:09 AM CDT 8:58 PM CDT
Astronomical Twilight 4:32 AM CDT 9:35 PM CDT
Moon 4:36 AM CDT (4/26) 5:24 PM CDT (4/26)
Length of Visible Light 14h 39m
Length of Day
13h 42m
Waning Crescent, 8% of the Moon is Illuminated
Apr 26
Waning Crescent
Apr 29
New
May 6
First Quarter
May 14
Full
May 21
Last Quarter

Hourly Weather History & Observations

Time (CDT) Temp. Dew Point Humidity Pressure Visibility Wind Dir Wind Speed Gust Speed Precip Events Conditions
12:15 AM 59.0 °F 37.4 °F 45% 29.86 in 10.0 mi SSW 5.8 mph - N/A   Clear
12:35 AM 59.0 °F 37.4 °F 45% 29.86 in 10.0 mi SSW 5.8 mph - N/A   Clear
12:55 AM 59.0 °F 37.4 °F 45% 29.86 in 10.0 mi South 5.8 mph - N/A   Clear
1:15 AM 57.2 °F 37.4 °F 48% 29.85 in 10.0 mi South 6.9 mph - N/A   Clear
1:35 AM 57.2 °F 37.4 °F 48% 29.85 in 10.0 mi SSW 5.8 mph - N/A   Clear
1:55 AM 59.0 °F 35.6 °F 42% 29.85 in 10.0 mi SSW 5.8 mph - N/A   Clear
2:15 AM 55.4 °F 37.4 °F 51% 29.84 in 10.0 mi South 5.8 mph - N/A   Clear
2:35 AM 55.4 °F 37.4 °F 51% 29.84 in 10.0 mi South 6.9 mph - N/A   Clear
2:55 AM 55.4 °F 37.4 °F 51% 29.83 in 10.0 mi South 6.9 mph - N/A   Clear
3:15 AM 53.6 °F 37.4 °F 54% 29.83 in 10.0 mi South 6.9 mph - N/A   Clear
3:35 AM 55.4 °F 37.4 °F 51% 29.83 in 10.0 mi South 8.1 mph - N/A   Clear
3:55 AM 55.4 °F 37.4 °F 51% 29.83 in 10.0 mi South 8.1 mph - N/A   Clear
4:15 AM 55.4 °F 37.4 °F 51% 29.84 in 10.0 mi South 8.1 mph - N/A   Clear
4:35 AM 55.4 °F 35.6 °F 47% 29.84 in 10.0 mi South 6.9 mph - N/A   Clear
4:55 AM 53.6 °F 35.6 °F 51% 29.85 in 10.0 mi SSW 6.9 mph - N/A   Clear
5:15 AM 53.6 °F 35.6 °F 51% 29.85 in 10.0 mi South 8.1 mph - N/A   Clear
5:35 AM 53.6 °F 35.6 °F 51% 29.85 in 10.0 mi South 9.2 mph - N/A   Clear
5:55 AM 53.6 °F 35.6 °F 51% 29.86 in 10.0 mi South 9.2 mph - N/A   Clear
6:15 AM 53.6 °F 37.4 °F 54% 29.86 in 10.0 mi South 9.2 mph - N/A   Clear
6:35 AM 53.6 °F 37.4 °F 54% 29.87 in 10.0 mi South 8.1 mph - N/A   Clear
6:55 AM 55.4 °F 37.4 °F 51% 29.87 in 10.0 mi SSW 8.1 mph - N/A   Clear
7:15 AM 57.2 °F 37.4 °F 48% 29.87 in 10.0 mi SSW 8.1 mph - N/A   Clear
7:35 AM 60.8 °F 37.4 °F 42% 29.87 in 10.0 mi SSW 8.1 mph - N/A   Clear
7:55 AM 60.8 °F 37.4 °F 42% 29.87 in 10.0 mi SSW 8.1 mph - N/A   Clear
8:15 AM 62.6 °F 37.4 °F 39% 29.87 in 10.0 mi SSW 6.9 mph - N/A   Clear
8:35 AM 64.4 °F 37.4 °F 37% 29.88 in 10.0 mi SSW 3.5 mph - N/A   Clear
8:55 AM 66.2 °F 37.4 °F 35% 29.88 in 10.0 mi SW 5.8 mph - N/A   Clear
9:15 AM 68.0 °F 37.4 °F 33% 29.88 in 10.0 mi SSW 3.5 mph - N/A   Clear
9:35 AM 69.8 °F 37.4 °F 31% 29.89 in 10.0 mi SSW 4.6 mph - N/A   Clear
9:55 AM 71.6 °F 37.4 °F 29% 29.89 in 10.0 mi SW 4.6 mph - N/A   Clear
10:15 AM 73.4 °F 35.6 °F 25% 29.89 in 10.0 mi SW 4.6 mph - N/A   Clear
10:35 AM 73.4 °F 35.6 °F 25% 29.89 in 10.0 mi WSW 3.5 mph - N/A   Clear
10:55 AM 77.0 °F 37.4 °F 24% 29.89 in 10.0 mi SSW 4.6 mph - N/A   Clear
11:15 AM 77.0 °F 35.6 °F 22% 29.89 in 10.0 mi South 5.8 mph - N/A   Clear
11:35 AM 78.8 °F 33.8 °F 20% 29.88 in 10.0 mi SSW 6.9 mph - N/A   Clear
11:55 AM 78.8 °F 35.6 °F 21% 29.87 in 10.0 mi South 6.9 mph - N/A   Clear
12:15 PM 78.8 °F 35.6 °F 21% 29.87 in 10.0 mi SSE 9.2 mph - N/A   Clear
12:35 PM 78.8 °F 33.8 °F 20% 29.86 in 10.0 mi South 9.2 mph - N/A   Clear
12:55 PM 78.8 °F 32.0 °F 18% 29.86 in 10.0 mi South 13.8 mph 17.3 mph N/A   Clear
1:15 PM 78.8 °F 32.0 °F 18% 29.85 in 10.0 mi South 13.8 mph 19.6 mph N/A   Clear
1:35 PM 78.8 °F 35.6 °F 21% 29.85 in 10.0 mi South 11.5 mph 16.1 mph N/A   Clear
1:55 PM 80.6 °F 33.8 °F 18% 29.84 in 10.0 mi South 9.2 mph - N/A   Clear
2:15 PM 80.6 °F 32.0 °F 17% 29.83 in 10.0 mi South 10.4 mph 20.7 mph N/A   Clear
2:35 PM 80.6 °F 32.0 °F 17% 29.81 in 10.0 mi SSE 10.4 mph 18.4 mph N/A   Clear
2:55 PM 80.6 °F 32.0 °F 17% 29.80 in 10.0 mi SE 13.8 mph - N/A   Clear
3:15 PM 80.6 °F 32.0 °F 17% 29.80 in 10.0 mi SSE 12.7 mph 17.3 mph N/A   Clear
3:35 PM 80.6 °F 32.0 °F 17% 29.80 in 10.0 mi SSE 15.0 mph - N/A   Clear
3:55 PM 77.0 °F 32.0 °F 19% 29.81 in 10.0 mi South 12.7 mph 16.1 mph N/A   Clear
4:15 PM 73.4 °F 32.0 °F 22% 29.80 in 10.0 mi South 8.1 mph - N/A   Clear
4:35 PM 73.4 °F 32.0 °F 22% 29.76 in 10.0 mi ESE 8.1 mph - N/A   Clear
4:55 PM 73.4 °F 32.0 °F 22% 29.75 in 10.0 mi SSE 11.5 mph - N/A Thunderstorm Scattered Clouds
5:15 PM 73.4 °F 33.8 °F 23% 29.77 in 10.0 mi East 5.8 mph - N/A Rain , Thunderstorm Light Thunderstorms and Rain
5:35 PM 71.6 °F 32.0 °F 23% 29.79 in 10.0 mi SSE 9.2 mph - N/A Thunderstorm Thunderstorm
5:55 PM 69.8 °F 35.6 °F 28% 29.78 in 10.0 mi ESE 4.6 mph - N/A Rain , Thunderstorm Light Thunderstorms and Rain
6:15 PM 71.6 °F 33.8 °F 25% 29.75 in 10.0 mi East 10.4 mph - N/A Rain Light Rain
6:35 PM 68.0 °F 39.2 °F 35% 29.79 in 10.0 mi East 4.6 mph - 0.01 in Rain , Thunderstorm Light Thunderstorms and Rain
6:55 PM 68.0 °F 35.6 °F 30% 29.77 in 10.0 mi SE 8.1 mph - 0.01 in Rain , Thunderstorm Light Thunderstorms and Rain
7:15 PM 69.8 °F 37.4 °F 31% 29.76 in 10.0 mi SE 9.2 mph - N/A   Clear
7:35 PM 69.8 °F 35.6 °F 28% 29.78 in 10.0 mi ESE 6.9 mph - N/A   Scattered Clouds
7:55 PM 69.8 °F 33.8 °F 27% 29.78 in 10.0 mi ESE 10.4 mph - N/A   Scattered Clouds
8:15 PM 69.8 °F 33.8 °F 27% 29.76 in 10.0 mi ESE 11.5 mph 17.3 mph N/A   Scattered Clouds
8:35 PM 69.8 °F 35.6 °F 28% 29.77 in 10.0 mi SE 10.4 mph 20.7 mph N/A   Clear
8:55 PM 69.8 °F 35.6 °F 28% 29.76 in 10.0 mi ESE 11.5 mph 20.7 mph N/A   Clear
9:15 PM 69.8 °F 37.4 °F 31% 29.76 in 10.0 mi ESE 12.7 mph 18.4 mph N/A   Scattered Clouds
9:35 PM 69.8 °F 39.2 °F 33% 29.74 in 10.0 mi ESE 12.7 mph 23.0 mph N/A   Scattered Clouds
9:55 PM 69.8 °F 39.2 °F 33% 29.77 in 10.0 mi SSE 8.1 mph 17.3 mph N/A   Scattered Clouds
10:15 PM 69.8 °F 41.0 °F 35% 29.79 in 10.0 mi SE 6.9 mph - N/A   Clear
10:35 PM 68.0 °F 41.0 °F 37% 29.78 in 10.0 mi ESE 8.1 mph - N/A   Scattered Clouds
10:55 PM 68.0 °F 41.0 °F 37% 29.78 in 10.0 mi ESE 8.1 mph - N/A   Clear
11:15 PM 68.0 °F 42.8 °F 40% 29.77 in 10.0 mi East 6.9 mph - N/A   Clear
11:35 PM 68.0 °F 42.8 °F 40% 29.77 in 10.0 mi East 6.9 mph - N/A   Clear
11:55 PM 64.4 °F 44.6 °F 49% 29.77 in 10.0 mi ESE 6.9 mph - N/A   Clear